User: anonymous   Login
Location: Bow
(51.5261°N, 0.0167°W)
Time: 04:15:58
(UTC+00:00)
Language:

Meteor 2-13 Rocket - Orbit

View from above orbital plane
View from above orbital plane
View from above satellite
View from above satellite

Ground track
Ground track

The orbit data is extracted from the following two-line orbital elements,

1 16409U 85119B   21215.44458050  .00000034  00000-0  16510-4 0  9999
2 16409  82.5345 238.7173 0016202 109.4313 250.8600 13.84818693799289
Epoch (UTC): 03 August 2021 10:40:11
Eccentricity: 0.0016202
inclination: 82.5345°
perigee height: 935 km
apogee height: 959 km
right ascension of ascending node: 238.7173°
argument of perigee: 109.4313°
revolutions per day: 13.84818693
mean anomaly at epoch: 250.8600°
orbit number at epoch: 79928

The dashed part of the orbit path shows where the satellite is in the earth's shadow,  

DLR